1484964000.6,32116,7.63,74118.3,-9.07,-11.19,-10.93,0,*5A
1484964001.82,32117,7.63,74112.3,-9.09,-11.15,-10.93,0,*59
1484964003.06,32118,7.63,74114.8,-9.07,-11.19,-10.93,0,*54
1484964004.29,32119,7.63,74114.8,-9.07,-11.19,-11.01,0,*5F
1484964005.52,32120,7.63,74116.8,-9.07,-11.19,-10.93,0,*5F
1484964006.78,32121,7.63,74114.0,-9.07,-11.33,-11.01,0,*5C
1484964008.07,32122,7.63,74114.5,-9.07,-11.33,-11.07,0,*59
1484964009.33,32123,7.63,74112.5,-9.07,-11.33,-11.01,0,*5E
1484964010.59,32124,7.63,74116.8,-9.07,-11.33,-11.15,0,*5C
1484964011.83,32125,7.63,74120.0,-9.07,-11.41,-11.15,0,*58
1484964013.06,32126,7.63,74114.5,-9.07,-11.41,-11.15,0,*5B
1484964014.3,32127,7.63,74116.8,-9.07,-11.41,-11.15,0,*5A
1484964015.54,32128,7.63,74116.3,-9.07,-11.41,-11.15,0,*55
1484964016.76,32129,7.63,74120.0,-9.09,-11.41,-11.19,0,*56
1484964017.98,32130,7.63,74120.3,-9.09,-11.41,-11.15,0,*52
1484964019.25,32131,7.63,74118.5,-9.09,-11.33,-11.07,0,*55
1484964020.5,32132,7.63,74116.0,-9.09,-11.29,-11.01,0,*5B
1484964021.71,32133,7.63,74114.8,-9.09,-11.19,-11.01,0,*59
1484964022.93,32134,7.63,74112.8,-9.09,-11.19,-10.93,0,*54
1484964024.15,32135,7.63,74118.3,-9.09,-11.15,-10.89,0,*52
1484964025.36,32136,7.63,74114.5,-9.09,-11.19,-11.01,0,*5C
1484964026.58,32137,7.63,74116.8,-9.09,-11.19,-10.93,0,*57
1484964027.79,32138,7.63,74116.0,-9.09,-11.15,-10.89,0,*5F
1484964029.01,32139,7.56,74112.3,-9.09,-11.19,-10.89,0,*52
1484964030.23,32140,7.63,74116.3,-9.09,-11.15,-10.89,0,*50
1484964031.44,32141,7.63,74114.3,-9.09,-11.15,-10.89,0,*51
1484964032.66,32142,7.56,74110.0,-9.09,-11.15,-10.93,0,*59
1484964033.89,32143,7.63,74114.0,-9.07,-11.15,-10.85,0,*51
1484964035.14,32144,7.63,74114.5,-9.09,-11.07,-10.89,0,*57
1484964036.38,32145,7.63,74114.8,-9.09,-11.07,-10.85,0,*5A
1484964037.63,32146,7.63,74118.3,-9.09,-11.01,-10.75,0,*50
1484964038.84,32147,7.63,74112.0,-9.09,-11.01,-10.85,0,*5E
1484964040.11,32148,7.63,74114.0,-9.07,-11.07,-10.89,0,*55
1484964041.35,32149,7.63,74114.8,-9.09,-11.07,-10.89,0,*5A
1484964042.6,32150,7.63,74118.0,-9.09,-11.07,-10.89,0,*52
1484964043.81,32151,7.63,74114.3,-9.09,-11.15,-10.85,0,*5C
1484964045.05,32152,7.63,74114.3,-9.09,-11.07,-10.85,0,*5C
1484964046.28,32153,7.63,74110.3,-9.07,-11.01,-10.85,0,*55
1484964047.53,32154,7.63,74112.8,-9.09,-11.07,-10.85,0,*5A
1484964048.78,32155,7.63,74116.8,-9.07,-11.07,-10.85,0,*55
1484964050.0,32156,7.63,74114.5,-9.09,-11.01,-10.85,0,*5E
1484964051.29,32157,7.63,74114.3,-9.07,-11.07,-10.75,0,*58
1484964052.54,32158,7.63,74112.0,-9.09,-11.01,-10.75,0,*5F
1484964053.79,32159,7.63,74112.8,-9.09,-11.01,-10.75,0,*5E
1484964055.04,32160,7.63,74114.8,-9.09,-11.07,-10.89,0,*51
1484964056.28,32161,7.63,74114.8,-9.09,-11.07,-10.89,0,*50
1484964057.52,32162,7.63,74114.5,-9.07,-11.15,-10.89,0,*5E
1484964058.73,32163,7.63,74114.5,-9.09,-11.19,-10.89,0,*5D
1484964059.95,32164,7.63,74114.5,-9.09,-11.19,-10.93,0,*51
1484964061.16,32165,7.63,74116.0,-9.09,-11.19,-10.93,0,*50
1484964062.43,32166,7.63,74114.8,-9.07,-11.29,-11.01,0,*54
1484964063.69,32167,7.63,74116.5,-9.07,-11.29,-11.01,0,*55
1484964064.94,32168,7.63,74118.5,-9.09,-11.29,-11.01,0,*54
1484964066.21,32169,7.63,74118.0,-9.09,-11.33,-11.07,0,*58
1484964067.48,32170,7.63,74118.8,-9.09,-11.33,-11.07,0,*50
1484964068.74,32171,7.63,74114.3,-9.07,-11.33,-11.01,0,*59
1484964069.99,32172,7.63,74114.8,-9.09,-11.33,-11.01,0,*54
1484964071.27,32173,7.63,74114.8,-9.09,-11.29,-11.07,0,*58
1484964072.56,32174,7.63,74112.5,-9.11,-11.33,-11.07,0,*5D
1484964073.78,32175,7.63,74114.5,-9.09,-11.19,-11.01,0,*5B
1484964074.99,32176,7.63,74116.3,-9.09,-11.19,-11.01,0,*58
1484964076.23,32177,7.63,74116.0,-9.13,-11.37,-11.11,0,*5F
1484964077.5,32178,7.63,74114.8,-9.09,-11.29,-11.07,0,*53
1484964078.77,32179,7.63,74118.8,-9.09,-11.33,-11.07,0,*59
1484964080.04,32180,7.63,74118.3,-9.11,-11.37,-11.19,0,*5D
1484964081.28,32181,7.63,74114.3,-9.11,-11.45,-11.23,0,*50
1484964082.53,32182,7.63,74116.3,-9.11,-11.45,-11.19,0,*5A
1484964083.78,32183,7.63,74118.3,-9.11,-11.45,-11.19,0,*5B
1484964085.0,32184,7.63,74114.5,-9.13,-11.45,-11.23,0,*57
1484964086.24,32185,7.63,74116.0,-9.11,-11.45,-11.19,0,*5D
1484964087.48,32186,7.63,74118.5,-9.13,-11.37,-11.19,0,*59
1484964088.7,32187,7.63,74118.8,-9.13,-11.45,-11.19,0,*5D
1484964089.92,32188,7.63,74118.5,-9.13,-11.45,-11.19,0,*52
1484964091.18,32189,7.63,74116.5,-9.11,-11.51,-11.23,0,*5D
1484964092.4,32190,7.63,74116.8,-9.13,-11.45,-11.23,0,*52
1484964093.64,32191,7.63,74120.0,-9.13,-11.51,-11.23,0,*56
1484964094.86,32192,7.63,74118.5,-9.13,-11.45,-11.23,0,*50
1484964096.09,32193,7.63,74118.0,-9.13,-11.51,-11.23,0,*54
1484964097.35,32194,7.63,74116.0,-9.13,-11.51,-11.33,0,*52
1484964098.59,32195,7.63,74116.8,-9.13,-11.51,-11.19,0,*5B
1484964099.83,32196,7.63,74120.0,-9.13,-11.37,-11.11,0,*50
1484964101.06,32197,7.63,74122.0,-9.13,-11.33,-11.11,0,*55
1484964102.3,32198,7.63,74118.5,-9.13,-11.37,-11.11,0,*5E
1484964103.54,32199,7.63,74116.5,-9.13,-11.37,-11.19,0,*57
1484964104.78,32200,7.63,74118.3,-9.11,-11.45,-11.19,0,*53
1484964106.04,32201,7.63,74120.3,-9.15,-11.51,-11.15,0,*5F
1484964107.31,32202,7.63,74118.5,-9.15,-11.41,-11.29,0,*52
1484964108.58,32203,7.63,74118.5,-9.15,-11.55,-11.23,0,*5C
1484964109.82,32204,7.63,74118.8,-9.15,-11.41,-11.15,0,*5B
1484964111.06,32205,7.63,74116.8,-9.15,-11.41,-11.23,0,*5F
1484964112.32,32206,7.63,74116.3,-9.15,-11.37,-11.11,0,*5C
1484964113.59,32207,7.63,74114.0,-9.17,-11.29,-11.01,0,*51
1484964114.86,32208,7.63,74112.5,-9.17,-11.29,-11.01,0,*5E
1484964116.1,32209,7.63,74116.5,-9.15,-11.23,-11.01,0,*57
1484964117.37,32210,7.63,74116.3,-9.15,-11.29,-11.01,0,*55
1484964118.63,32211,7.63,74114.0,-9.15,-11.37,-11.15,0,*5E
1484964119.89,32212,7.63,74118.0,-9.15,-11.37,-11.15,0,*5D
1484964121.15,32213,7.63,74116.3,-9.15,-11.37,-11.15,0,*5C
1484964122.39,32214,7.63,74116.5,-9.17,-11.41,-11.15,0,*58
1484964123.63,32215,7.63,74112.0,-9.15,-11.41,-11.15,0,*5B
1484964124.87,32216,7.63,74114.0,-9.15,-11.41,-11.15,0,*58
1484964126.12,32217,7.63,74112.8,-9.17,-11.41,-11.11,0,*5F
1484964127.38,32218,7.63,74116.0,-9.15,-11.37,-11.15,0,*57
1484964128.62,32219,7.63,74116.0,-9.15,-11.41,-11.23,0,*52
1484964129.88,32220,7.63,74116.5,-9.17,-11.51,-11.15,0,*5E
1484964131.12,32221,7.63,74118.0,-9.17,-11.41,-11.23,0,*5B
1484964132.36,32222,7.63,74116.5,-9.15,-11.41,-11.23,0,*5A
1484964133.62,32223,7.63,74112.5,-9.17,-11.51,-11.23,0,*58
1484964134.86,32224,7.63,74116.5,-9.15,-11.41,-11.15,0,*59
1484964136.12,32225,7.63,74116.0,-9.15,-11.37,-11.11,0,*5D
1484964137.38,32226,7.63,74114.0,-9.15,-11.37,-11.11,0,*5E
1484964138.65,32227,7.63,74116.3,-9.17,-11.37,-11.11,0,*5D
1484964139.91,32228,7.63,74114.8,-9.17,-11.37,-11.11,0,*52
1484964141.17,32229,7.63,74112.0,-9.17,-11.37,-11.11,0,*53
1484964142.41,32230,7.63,74114.8,-9.17,-11.41,-11.15,0,*5E
1484964143.66,32231,7.63,74114.0,-9.17,-11.41,-11.15,0,*5F
1484964144.9,32232,7.63,74118.0,-9.17,-11.41,-11.15,0,*5C
1484964146.14,32233,7.63,74112.3,-9.17,-11.41,-11.23,0,*58
1484964147.38,32234,7.63,74116.0,-9.17,-11.41,-11.23,0,*5F
1484964148.63,32235,7.63,74116.8,-9.17,-11.41,-11.23,0,*5E
1484964149.89,32236,7.63,74118.0,-9.17,-11.51,-11.23,0,*5C
1484964151.15,32237,7.63,74118.5,-9.17,-11.55,-11.23,0,*59
1484964152.41,32238,7.63,74118.8,-9.17,-11.51,-11.23,0,*52
1484964153.68,32239,7.63,74112.8,-9.17,-11.51,-11.23,0,*53
1484964154.92,32240,7.63,74114.5,-9.17,-11.41,-11.15,0,*59
1484964156.14,32241,7.63,74116.0,-9.19,-11.41,-11.15,0,*56
1484964157.41,32242,7.63,74116.0,-9.19,-11.29,-11.07,0,*58
1484964158.69,32243,7.63,74116.8,-9.19,-11.29,-11.07,0,*59
1484964159.93,32244,7.63,74114.8,-9.19,-11.33,-11.01,0,*53
1484964161.17,32245,7.63,74112.5,-9.19,-11.29,-11.01,0,*59
1484964162.42,32246,7.63,74112.3,-9.17,-11.23,-10.97,0,*50
1484964163.66,32247,7.63,74116.3,-9.17,-11.23,-11.01,0,*5F
1484964164.93,32248,7.63,74114.3,-9.17,-11.29,-11.01,0,*5A
1484964166.2,32249,7.63,74118.5,-9.17,-11.29,-11.11,0,*5A
1484964167.47,32250,7.63,74118.0,-9.19,-11.33,-11.07,0,*50
1484964168.74,32251,7.63,74116.5,-9.17,-11.29,-11.01,0,*52
1484964169.99,32252,7.63,74118.0,-9.19,-11.45,-11.07,0,*53
1484964171.21,32253,7.63,74116.0,-9.19,-11.41,-11.15,0,*55
1484964172.43,32254,7.63,74116.8,-9.19,-11.41,-11.15,0,*52
1484964173.67,32255,7.63,74116.0,-9.21,-11.41,-11.19,0,*54
1484964174.89,32256,7.63,74112.0,-9.19,-11.45,-11.19,0,*58
1484964176.11,32257,7.63,74118.0,-9.19,-11.45,-11.19,0,*59
1484964177.35,32258,7.63,74114.5,-9.19,-11.55,-11.19,0,*57
1484964178.57,32259,7.63,74112.8,-9.19,-11.41,-11.19,0,*53
1484964179.83,32260,7.63,74116.0,-9.19,-11.55,-11.33,0,*54
1484964181.1,32261,7.63,74114.5,-9.19,-11.55,-11.29,0,*5E
1484964182.36,32262,7.63,74118.3,-9.19,-11.55,-11.33,0,*56
1484964183.62,32263,7.63,74114.8,-9.19,-11.55,-11.33,0,*57
1484964184.89,32264,7.63,74112.5,-9.21,-11.41,-11.29,0,*55
1484964186.13,32265,7.63,74114.3,-9.21,-11.41,-11.19,0,*57
1484964187.37,32266,7.63,74114.3,-9.19,-11.33,-11.15,0,*56
1484964188.61,32267,7.56,74110.8,-9.21,-11.19,-11.01,0,*51
1484964189.85,32268,7.63,74116.3,-9.21,-11.15,-10.89,0,*53
1484964191.09,32269,7.63,74116.8,-9.19,-11.07,-10.89,0,*5A
1484964192.36,32270,7.63,74116.0,-9.21,-11.01,-10.75,0,*5C
1484964193.61,32271,7.63,74114.0,-9.19,-10.97,-10.75,0,*58
1484964194.85,32272,7.63,74116.5,-9.19,-10.89,-10.71,0,*50
1484964196.09,32273,7.63,74116.0,-9.19,-10.89,-10.71,0,*51
1484964197.33,32274,7.63,74114.0,-9.17,-10.85,-10.53,0,*54
1484964198.6,32275,7.63,74112.8,-9.17,-10.79,-10.53,0,*56
1484964199.86,32276,7.63,74116.0,-9.17,-10.71,-10.53,0,*5D
1484964201.13,32277,7.63,74112.3,-9.15,-10.71,-10.45,0,*59
1484964202.4,32278,7.63,74112.5,-9.17,-10.67,-10.45,0,*53
1484964203.68,32279,7.56,74108.3,-9.15,-10.67,-10.45,0,*50
1484964204.94,32280,7.63,74112.3,-9.15,-10.71,-10.45,0,*51
1484964206.23,32281,7.63,74114.0,-9.15,-10.79,-10.41,0,*5C
1484964207.53,32282,7.63,74112.5,-9.15,-10.71,-10.41,0,*57
1484964208.83,32283,7.63,74116.0,-9.15,-10.71,-10.41,0,*56
1484964210.1,32284,7.63,74112.5,-9.13,-10.63,-10.41,0,*54
1484964211.35,32285,7.63,74114.3,-9.13,-10.63,-10.35,0,*56
1484964212.6,32286,7.63,74114.8,-9.13,-10.63,-10.35,0,*55
1484964213.82,32287,7.63,74112.5,-9.13,-10.53,-10.35,0,*57
1484964215.07,32288,7.63,74112.0,-9.13,-10.63,-10.27,0,*58
1484964216.34,32289,7.63,74114.0,-9.11,-10.63,-10.35,0,*58
1484964217.65,32290,7.63,74112.3,-9.11,-10.67,-10.41,0,*57
1484964218.92,32291,7.63,74110.3,-9.11,-10.67,-10.49,0,*5E
1484964220.22,32292,7.63,74116.5,-9.11,-10.67,-10.41,0,*55
1484964221.5,32293,7.63,74114.8,-9.13,-10.67,-10.41,0,*56
1484964222.8,32294,7.63,74116.3,-9.11,-10.63,-10.41,0,*57
1484964224.05,32295,7.63,74114.3,-9.09,-10.57,-10.41,0,*58
1484964225.33,32296,7.63,74112.8,-9.11,-10.67,-10.35,0,*52
1484964226.61,32297,7.63,74114.8,-9.11,-10.63,-10.35,0,*57
1484964227.82,32298,7.63,74114.0,-9.09,-10.57,-10.23,0,*51
1484964229.06,32299,7.63,74114.8,-9.07,-10.57,-10.23,0,*5E
1484964230.28,32300,7.63,74114.3,-9.09,-10.57,-10.31,0,*52
1484964231.52,32301,7.63,74116.3,-9.07,-10.57,-10.31,0,*5D
1484964232.74,32302,7.56,74110.8,-9.09,-10.57,-10.31,0,*50
1484964233.96,32303,7.63,74112.5,-9.09,-10.49,-10.31,0,*5E
1484964235.23,32304,7.63,74112.8,-9.07,-10.63,-10.35,0,*5B
1484964236.49,32305,7.63,74110.3,-9.09,-10.71,-10.35,0,*57
1484964237.75,32306,7.63,74112.5,-9.07,-10.63,-10.35,0,*59
1484964239.03,32307,7.63,74112.5,-9.07,-10.63,-10.35,0,*58
1484964240.29,32308,7.56,74110.5,-9.07,-10.71,-10.35,0,*54
1484964241.54,32309,7.63,74114.0,-9.09,-10.71,-10.45,0,*5C
1484964242.8,32310,7.63,74114.5,-9.07,-10.63,-10.45,0,*59
1484964244.07,32311,7.63,74112.0,-9.07,-10.71,-10.45,0,*5B
1484964245.33,32312,7.63,74108.3,-9.07,-10.71,-10.45,0,*58
1484964246.63,32313,7.63,74112.8,-9.03,-10.67,-10.41,0,*5E
1484964247.91,32314,7.63,74112.5,-9.05,-10.67,-10.41,0,*5F
1484964249.18,32315,7.63,74112.8,-9.05,-10.67,-10.41,0,*5E
1484964250.46,32316,7.63,74112.8,-9.05,-10.67,-10.41,0,*5D
1484964251.68,32317,7.56,74108.5,-9.05,-10.57,-10.31,0,*58
1484964252.89,32318,7.63,74114.5,-9.05,-10.53,-10.27,0,*54
1484964254.13,32319,7.63,74114.5,-9.03,-10.53,-10.19,0,*5E
1484964255.35,32320,7.63,74112.3,-9.05,-10.53,-10.27,0,*5F
1484964256.58,32321,7.63,74112.8,-9.03,-10.53,-10.27,0,*58
1484964257.8,32322,7.63,74114.5,-9.05,-10.53,-10.19,0,*50
1484964259.02,32323,7.63,74118.8,-9.05,-10.45,-10.19,0,*56
1484964260.26,32324,7.63,74112.5,-9.03,-10.45,-10.15,0,*5B
1484964261.5,32325,7.63,74112.5,-9.03,-10.31,-10.05,0,*58
1484964262.73,32326,7.63,74112.5,-9.03,-10.27,-9.93,0,*6B
1484964263.98,32327,7.63,74114.3,-9.03,-10.27,-10.01,0,*59
1484964265.2,32328,7.63,74112.5,-8.99,-10.23,-9.97,0,*67
1484964266.43,32329,7.63,74108.8,-8.99,-10.23,-9.97,0,*66
1484964267.66,32330,7.63,74112.3,-8.99,-10.23,-9.97,0,*6E
1484964268.9,32331,7.63,74114.5,-8.99,-10.27,-10.01,0,*5C
1484964270.12,32332,7.63,74114.3,-8.97,-10.27,-10.01,0,*51
1484964271.33,32333,7.63,74112.3,-8.97,-10.27,-10.01,0,*50
1484964272.55,32334,7.56,74112.3,-8.97,-10.27,-10.01,0,*57
1484964273.76,32335,7.63,74116.3,-8.97,-10.27,-9.97,0,*61
1484964274.96,32336,7.63,74114.0,-8.97,-10.15,-9.89,0,*6C
1484964276.17,32337,7.63,74112.8,-8.97,-10.23,-9.89,0,*68
1484964277.4,32338,7.63,74116.3,-8.95,-10.23,-9.93,0,*6E
1484964278.63,32339,7.63,74112.5,-8.95,-10.19,-9.93,0,*66
1484964279.86,32340,7.63,74112.5,-8.95,-10.31,-9.93,0,*62
1484964281.09,32341,7.63,74114.3,-8.95,-10.23,-9.97,0,*64
1484964282.32,32342,7.63,74112.8,-8.95,-10.23,-9.97,0,*67
1484964283.52,32343,7.63,74114.8,-8.93,-10.23,-9.97,0,*60
1484964284.73,32344,7.63,74114.5,-8.93,-10.09,-9.93,0,*6B
1484964285.95,32345,7.63,74114.8,-8.93,-10.09,-9.83,0,*6B
1484964287.17,32346,7.63,74112.0,-8.93,-10.09,-9.83,0,*68
1484964288.39,32347,7.63,74112.3,-8.91,-9.93,-9.75,0,*59
1484964289.6,32348,7.63,74114.5,-8.91,-9.89,-9.75,0,*5D
1484964290.82,32349,7.63,74114.3,-8.91,-9.93,-9.71,0,*53
1484964292.03,32350,7.63,74108.8,-8.91,-9.89,-9.71,0,*50
1484964293.25,32351,7.63,74108.3,-8.91,-9.93,-9.71,0,*5A
1484964294.44,32352,7.63,74110.8,-8.89,-9.97,-9.67,0,*53
1484964295.64,32353,7.63,74108.8,-8.89,-9.97,-9.71,0,*55
1484964296.84,32354,7.63,74106.0,-8.89,-10.09,-9.79,0,*65
1484964298.06,32355,7.63,74106.5,-8.89,-10.01,-9.83,0,*69
1484964299.29,32356,7.56,74106.0,-8.87,-10.01,-9.75,0,*6D
1484964300.52,32357,7.63,74110.0,-8.87,-10.09,-9.75,0,*64
1484964301.74,32358,7.63,74108.3,-8.87,-10.09,-9.75,0,*6B
1484964302.97,32359,7.63,74110.5,-8.87,-10.01,-9.75,0,*62
1484964304.17,32360,7.63,74112.0,-8.85,-9.97,-9.71,0,*59
1484964305.36,32361,7.56,74108.8,-8.85,-9.93,-9.71,0,*5C
1484964306.56,32362,7.63,74108.5,-8.85,-9.93,-9.71,0,*5F
1484964307.76,32363,7.63,74110.8,-8.85,-9.97,-9.71,0,*5A
1484964308.96,32364,7.63,74110.0,-8.85,-9.97,-9.71,0,*5D
1484964310.17,32365,7.63,74106.3,-8.87,-9.89,-9.71,0,*51
1484964311.42,32366,7.63,74108.0,-8.83,-9.83,-9.61,0,*5D
1484964312.65,32367,7.63,74108.3,-8.83,-9.79,-9.53,0,*58
1484964313.9,32368,7.63,74114.0,-8.81,-9.71,-9.61,0,*5C
1484964315.13,32369,7.63,74112.5,-8.83,-9.79,-9.53,0,*56
1484964316.38,32370,7.63,74112.3,-8.81,-9.79,-9.53,0,*5C
1484964317.63,32371,7.63,74112.5,-8.81,-9.79,-9.61,0,*5C
1484964318.85,32372,7.63,74114.0,-8.83,-9.83,-9.67,0,*5E
1484964320.05,32373,7.63,74112.5,-8.83,-9.93,-9.67,0,*5E
1484964321.27,32374,7.63,74108.8,-8.77,-9.93,-9.75,0,*51
1484964322.5,32375,7.63,74110.5,-8.77,-10.01,-9.67,0,*60
1484964323.73,32376,7.63,74110.8,-8.77,-9.93,-9.67,0,*50
1484964324.96,32377,7.63,74110.5,-8.77,-9.93,-9.67,0,*51
1484964326.18,32378,7.63,74110.3,-8.81,-9.97,-9.71,0,*54
1484964327.37,32379,7.63,74108.3,-8.75,-9.93,-9.67,0,*5D
1484964328.57,32380,7.56,74106.0,-8.75,-9.89,-9.71,0,*57
1484964329.8,32381,7.63,74110.8,-8.77,-10.01,-9.75,0,*68
1484964331.0,32382,7.63,74112.3,-8.75,-10.09,-9.75,0,*61
1484964332.22,32383,7.63,74114.0,-8.75,-10.09,-9.83,0,*69
1484964333.44,32384,7.63,74108.8,-8.75,-10.09,-9.83,0,*6E
1484964334.64,32385,7.63,74112.0,-8.75,-10.05,-9.79,0,*66
1484964335.84,32386,7.63,74110.5,-8.75,-10.01,-9.75,0,*6D
1484964337.09,32387,7.63,74112.5,-8.73,-10.09,-9.83,0,*6B
1484964338.31,32388,7.63,74114.3,-8.75,-10.09,-9.83,0,*62
1484964339.51,32389,7.63,74112.3,-8.75,-10.09,-9.75,0,*6A
1484964340.71,32390,7.63,74112.0,-8.75,-10.09,-9.75,0,*62
1484964341.94,32391,7.63,74114.8,-8.73,-10.09,-9.75,0,*65
1484964343.17,32392,7.63,74114.3,-8.73,-10.15,-9.97,0,*67
1484964344.4,32393,7.63,74110.5,-8.73,-10.23,-9.89,0,*6C
1484964345.63,32394,7.63,74112.8,-8.73,-10.23,-9.97,0,*64
1484964346.88,32395,7.63,74108.8,-8.73,-10.27,-10.01,0,*56
1484964348.12,32396,7.63,74112.5,-8.73,-10.35,-10.09,0,*5E
1484964349.36,32397,7.63,74110.0,-8.73,-10.35,-10.09,0,*5F
1484964350.6,32398,7.63,74114.5,-8.73,-10.35,-10.23,0,*58
1484964351.86,32399,7.56,74110.0,-8.73,-10.41,-10.23,0,*5A
1484964353.13,32400,7.63,74108.3,-8.73,-10.41,-10.23,0,*5D
1484964354.39,32401,7.63,74112.0,-8.73,-10.41,-10.23,0,*5C
1484964355.61,32402,7.63,74104.5,-8.71,-10.45,-10.19,0,*50
1484964356.87,32403,7.63,74108.3,-8.73,-10.41,-10.23,0,*5E
1484964358.09,32404,7.63,74108.5,-8.71,-10.35,-10.19,0,*51
1484964359.36,32405,7.63,74106.8,-8.73,-10.41,-10.23,0,*58
1484964360.6,32406,7.63,74110.8,-8.73,-10.35,-10.15,0,*5D
1484964361.84,32407,7.63,74108.3,-8.73,-10.35,-10.09,0,*51
1484964363.05,32408,7.63,74110.0,-8.71,-10.23,-10.09,0,*5B
1484964364.3,32409,7.63,74110.3,-8.73,-10.27,-10.01,0,*54
1484964365.51,32410,7.63,74108.5,-8.71,-10.19,-9.93,0,*60
1484964366.74,32411,7.63,74110.3,-8.73,-10.23,-9.89,0,*61
1484964367.97,32412,7.63,74110.0,-8.73,-10.23,-9.89,0,*62
1484964369.19,32413,7.63,74114.8,-8.71,-10.05,-9.83,0,*6F
1484964370.39,32414,7.63,74108.5,-8.71,-10.05,-9.71,0,*65
1484964371.64,32415,7.63,74108.3,-8.73,-10.09,-9.83,0,*67
1484964372.87,32416,7.63,74112.5,-8.71,-10.19,-9.83,0,*67
1484964374.11,32417,7.63,74112.3,-8.71,-10.19,-9.83,0,*66
1484964375.33,32418,7.63,74112.5,-8.71,-10.05,-9.83,0,*64
1484964376.53,32419,7.63,74112.8,-8.71,-10.05,-9.71,0,*68
1484964377.75,32420,7.63,74108.8,-8.69,-9.93,-9.67,0,*5B
1484964378.97,32421,7.63,74110.8,-8.69,-9.93,-9.67,0,*5A
1484964380.23,32422,7.63,74118.0,-8.69,-9.79,-9.53,0,*5A
1484964381.49,32423,7.63,74114.8,-8.69,-9.71,-9.53,0,*53
1484964382.74,32424,7.63,74114.3,-8.69,-9.79,-9.53,0,*5C
1484964383.97,32425,7.63,74112.0,-8.67,-9.67,-9.49,0,*57
1484964385.19,32426,7.63,74114.8,-8.67,-9.75,-9.49,0,*57
1484964386.42,32427,7.63,74112.3,-8.67,-9.71,-9.53,0,*59
1484964387.65,32428,7.63,74114.0,-8.67,-9.75,-9.49,0,*59
1484964388.87,32429,7.63,74110.5,-8.67,-9.79,-9.49,0,*54
1484964390.11,32430,7.63,74110.8,-8.65,-9.89,-9.61,0,*5B
1484964391.33,32431,7.63,74110.8,-8.65,-9.93,-9.67,0,*57
1484964392.55,32432,7.63,74106.0,-8.65,-9.93,-9.67,0,*54
1484964393.8,32433,7.63,74108.8,-8.65,-10.01,-9.61,0,*60
1484964395.03,32434,7.63,74104.8,-8.63,-9.71,-9.49,0,*54
1484964396.27,32435,7.63,74110.0,-8.65,-9.75,-9.49,0,*57
1484964397.48,32436,7.63,74108.3,-8.63,-9.61,-9.31,0,*58
1484964398.72,32437,7.56,74110.5,-8.65,-9.53,-9.31,0,*5E
1484964399.97,32438,7.63,74112.8,-8.63,-9.49,-9.15,0,*5A
1484964401.18,32439,7.63,74110.0,-8.63,-9.49,-9.19,0,*57
1484964402.43,32440,7.63,74110.5,-8.61,-9.57,-9.27,0,*59
1484964403.64,32441,7.63,74112.3,-8.59,-9.45,-9.27,0,*50
1484964404.89,32442,7.63,74110.3,-8.59,-9.45,-9.37,0,*52
1484964406.13,32443,7.63,74110.5,-8.59,-9.53,-9.37,0,*54
1484964407.37,32444,7.63,74108.8,-8.59,-9.53,-9.37,0,*53
1484964408.61,32445,7.63,74108.3,-8.59,-9.57,-9.41,0,*57
1484964409.83,32446,7.63,74106.5,-8.59,-9.79,-9.41,0,*58
1484964411.05,32447,7.63,74106.8,-8.59,-9.71,-9.41,0,*51
1484964412.27,32448,7.63,74106.3,-8.59,-9.71,-9.45,0,*5A
1484964413.49,32449,7.63,74106.8,-8.59,-9.67,-9.45,0,*5C
1484964414.71,32450,7.63,74108.5,-8.55,-9.67,-9.37,0,*5D
1484964415.95,32451,7.56,74102.5,-8.55,-9.57,-9.37,0,*5F
1484964417.2,32452,7.63,74104.8,-8.51,-9.49,-9.23,0,*52
1484964418.44,32453,7.63,74108.5,-8.51,-9.49,-9.19,0,*5A
1484964419.66,32454,7.63,74112.0,-8.55,-9.53,-9.27,0,*5F
1484964420.9,32455,7.63,74110.3,-8.55,-9.53,-9.37,0,*5F
1484964422.17,32456,7.63,74106.0,-8.51,-9.61,-9.37,0,*59
1484964423.45,32457,7.63,74106.0,-8.51,-9.53,-9.37,0,*59
1484964424.66,32458,7.63,74106.3,-8.49,-9.57,-9.27,0,*5A
1484964425.87,32459,7.63,74108.0,-8.49,-9.57,-9.31,0,*5C
1484964427.1,32460,7.63,74110.0,-8.49,-9.71,-9.45,0,*51
1484964428.34,32461,7.63,74108.0,-8.49,-9.83,-9.45,0,*5D
1484964429.61,32462,7.63,74108.0,-8.47,-9.83,-9.49,0,*5C
1484964430.84,32463,7.63,74110.3,-8.49,-9.75,-9.49,0,*5A
1484964432.06,32464,7.63,74104.5,-8.49,-9.75,-9.45,0,*51
1484964433.3,32465,7.63,74106.5,-8.49,-9.83,-9.45,0,*59
1484964434.58,32466,7.56,74102.8,-8.47,-9.61,-9.37,0,*5D
1484964435.83,32467,7.63,74104.0,-8.47,-9.71,-9.37,0,*5D
1484964437.09,32468,7.56,74100.5,-8.47,-9.71,-9.45,0,*57
1484964438.36,32469,7.63,74106.8,-8.47,-9.83,-9.49,0,*57
1484964439.61,32470,7.63,74104.8,-8.47,-9.75,-9.61,0,*5C
1484964440.86,32471,7.63,74104.8,-8.47,-9.75,-9.49,0,*57
1484964442.11,32472,7.63,74102.5,-8.47,-9.75,-9.49,0,*54
1484964443.36,32473,7.63,74106.0,-8.47,-9.71,-9.49,0,*51
1484964444.62,32474,7.63,74106.0,-8.47,-9.71,-9.37,0,*5F
1484964445.87,32475,7.63,74102.3,-8.47,-9.75,-9.45,0,*5F
1484964447.1,32476,7.63,74102.5,-8.45,-9.71,-9.41,0,*5E
1484964448.34,32477,7.63,74106.3,-8.45,-9.71,-9.45,0,*5B
1484964449.57,32478,7.63,74106.0,-8.45,-9.79,-9.53,0,*5B
1484964450.84,32479,7.63,74104.5,-8.43,-9.83,-9.53,0,*59
1484964452.06,32480,7.63,74108.8,-8.45,-9.93,-9.57,0,*5C
1484964453.3,32481,7.63,74104.0,-8.43,-9.93,-9.57,0,*5B
1484964454.52,32482,7.63,74100.8,-8.45,-9.93,-9.57,0,*5E
1484964455.74,32483,7.63,74102.0,-8.45,-9.93,-9.57,0,*5F
1484964456.96,32484,7.56,74098.8,-8.43,-9.93,-9.67,0,*5D
1484964458.16,32485,7.63,74102.8,-8.45,-9.97,-9.67,0,*5E
1484964459.38,32486,7.63,74100.5,-8.43,-10.05,-9.79,0,*67
1484964460.59,32487,7.63,74100.3,-8.43,-9.97,-9.79,0,*55
1484964461.8,32488,7.63,74102.5,-8.45,-9.97,-9.79,0,*5C
1484964463.02,32489,7.63,74106.5,-8.45,-10.05,-9.83,0,*6B
1484964464.23,32490,7.63,74100.3,-8.45,-10.05,-9.93,0,*62
1484964465.48,32491,7.63,74106.0,-8.43,-10.19,-9.83,0,*69
1484964466.7,32492,7.63,74106.3,-8.45,-10.19,-9.93,0,*6D
1484964467.93,32493,7.63,74102.8,-8.43,-10.19,-10.05,0,*5D
1484964469.14,32494,7.63,74104.5,-8.45,-10.19,-9.97,0,*6F
1484964470.36,32495,7.56,74102.3,-8.45,-10.19,-9.97,0,*6E
1484964471.57,32496,7.63,74106.0,-8.45,-10.19,-9.97,0,*6D
1484964472.8,32497,7.63,74106.8,-8.45,-10.09,-9.83,0,*68
1484964474.0,32498,7.56,74104.0,-8.45,-10.09,-9.93,0,*66
1484964475.21,32499,7.56,74102.0,-8.45,-10.09,-9.93,0,*67
1484964476.43,32500,7.63,74106.5,-8.45,-10.09,-9.83,0,*67
1484964477.66,32501,7.63,74102.8,-8.45,-10.09,-9.83,0,*66
1484964478.89,32502,7.63,74104.0,-8.45,-10.09,-9.83,0,*65
1484964480.09,32503,7.63,74106.0,-8.45,-10.09,-9.93,0,*65
1484964481.31,32504,7.56,74102.8,-8.43,-10.09,-9.97,0,*60
1484964482.53,32505,7.56,74100.5,-8.45,-10.19,-9.97,0,*66
1484964483.74,32506,7.63,74102.5,-8.45,-10.19,-10.05,0,*56
1484964484.98,32507,7.63,74104.5,-8.43,-10.23,-10.05,0,*58
1484964486.19,32508,7.63,74104.0,-8.45,-10.27,-10.05,0,*55
1484964487.41,32509,7.63,74106.0,-8.45,-10.23,-10.09,0,*5C
1484964488.62,32510,7.56,74102.0,-8.45,-10.35,-10.09,0,*53
1484964489.87,32511,7.63,74104.0,-8.45,-10.41,-10.19,0,*50
1484964491.1,32512,7.63,74106.3,-8.45,-10.35,-10.19,0,*50
1484964492.33,32513,7.63,74106.0,-8.47,-10.45,-10.23,0,*5D
1484964493.57,32514,7.56,74104.0,-8.45,-10.41,-10.23,0,*5C
1484964494.79,32515,7.56,74102.0,-8.49,-10.45,-10.27,0,*51
1484964496.03,32516,7.63,74108.5,-8.47,-10.57,-10.27,0,*5F
1484964497.26,32517,7.63,74104.8,-8.47,-10.53,-10.31,0,*5D
1484964498.5,32518,7.56,74106.0,-8.47,-10.53,-10.27,0,*55
1484964499.71,32519,7.63,74106.0,-8.49,-10.45,-10.27,0,*5D
1484964500.93,32520,7.63,74108.3,-8.49,-10.45,-10.27,0,*57
1484964502.14,32521,7.56,74106.8,-8.49,-10.45,-10.27,0,*56
1484964503.35,32522,7.63,74108.0,-8.49,-10.45,-10.27,0,*55
1484964504.59,32523,7.56,74102.5,-8.47,-10.45,-10.15,0,*5B
1484964505.83,32524,7.63,74106.5,-8.47,-10.45,-10.15,0,*5C
1484964507.04,32525,7.56,74106.5,-8.49,-10.45,-10.23,0,*56
1484964508.25,32526,7.63,74110.0,-8.49,-10.45,-10.15,0,*50